Simultaneous Nadir Overpasses (SNOs) Predictions

Prediction of SNOs between GOES-16 and NOAA-19 Satellite Orbit:

Table of predicted SNOs for the next 14.0 days since TLE Epoch: 11/29/2019
Index Date Time (GOES-16) GOES-16 Lat,Lon NOAA-19 Lat,Lon Distance(km) Time Diff (sec)
1 11/30/2019 10:20:31 0.03, -75.21 -0.03, -74.84 41.76 80
2 12/01/2019 10:08:52 0.02, -75.22 -0.73, -72.01 367.28 80
3 12/03/2019 22:32:36 -0.03, -75.25 -0.40, -76.99 198.69 80
4 12/04/2019 22:18:16 -0.02, -75.26 0.24, -74.14 127.67 80
5 12/05/2019 22:06:37 -0.02, -75.27 0.88, -71.29 454.17 80
6 12/07/2019 10:42:02 0.03, -75.30 0.90, -79.13 437.01 80
7 12/08/2019 10:30:23 0.03, -75.32 0.26, -76.28 110.17 80
8 12/09/2019 10:16:03 0.03, -75.34 -0.39, -73.43 216.79 80
9 12/11/2019 22:39:47 -0.04, -75.38 -0.75, -78.42 346.79 80
10 12/12/2019 22:28:09 -0.05, -75.40 -0.06, -75.58 20.01 80




NCC Satellite Simultaneous Nadir Overpasses (SNOs) Prediction Service
